Regional Weather Roundup
Issued by NWS

Home | Current Version | Previous Version | Graphics & Text | Print | Product List | Glossary On
Versions: 1 2 3 4 5 6 7 8 9 10 11 12 13 14 15 16 17 18 19 20 21 22 23 24 25 26 27 28
000
ASUS45 KTFX 290810
RWRMT
MONTANA REGIONAL WEATHER ROUNDUP
NATIONAL WEATHER SERVICE GREAT FALLS MT
200 AM MDT FRI JUL 29 2016

NOTE: "FAIR" INDICATES FEW OR NO CLOUDS BELOW 12000 FEET WITH NO
SIGNIFICANT WEATHER AND/OR OBSTRUCTIONS TO VISIBILITY.

MTZ001>007-043-290900-
WEST OF THE DIVIDE

CITY           SKY/WX    TMP DP  RH WIND       PRES   REMARKS
KALISPELL      CLEAR     58  54  86 N8        30.04S
MISSOULA       CLEAR     64  48  56 CALM      30.07S
BUTTE          CLEAR     55  38  52 SE6       30.21S
MULLAN PASS    CLEAR     65  39  38 N6        30.24S
ANACONDA         N/A     61  43  51 SW5       30.17S
DEER LODGE       N/A     55  45  67 CALM      30.18S
EUREKA           N/A     57  50  77 CALM        N/A
HAMILTON         N/A     61  48  63 CALM      30.09R
LIBBY            N/A     61  48  63 CALM      30.04S
PLAINS           N/A     61  48  62 CALM      30.04F
RONAN            N/A     57  51  80 CALM      30.09S
$$

MTZ008-052>055-290900-
SOUTHWEST MONTANA

CITY           SKY/WX    TMP DP  RH WIND       PRES   REMARKS
BOZEMAN        CLEAR     58  51  78 CALM      30.14S
DILLON         CLEAR     59  44  57 S9        30.16F
W YELLOWSTONE  CLOUDY    46  36  66 CALM      30.28S
ENNIS          CLEAR     55  39  54 CALM      30.22S
THREE FORKS      N/A     57  53  86 CALM      30.11S
TWIN BRIDGES     N/A     62  45  53 SE3       30.13S
$$

MTZ009-010-012-014-046-048-049-054-290900-
EAST SLOPES AND CENTRAL MONTANA

CITY           SKY/WX    TMP DP  RH WIND       PRES   REMARKS
CUT BANK       CLOUDY    61  58  90 CALM      30.16S
GREAT FALLS    CLEAR     67  50  54 E10       30.09F
MALMSTROM AFB  PTCLDY    62  51  67 E8        30.09F
HELENA         CLEAR     67  46  47 W9        30.10S
CHOTEAU          N/A     59  54  82 NW9       30.16R
CONRAD           N/A     59  59 100 NW3       30.16R
$$

MTZ011-013-016-021-045-047-050-051-290900-
NORTH CENTRAL MONTANA

CITY           SKY/WX    TMP DP  RH WIND       PRES   REMARKS
HAVRE          CLOUDY    68  58  70 W3        30.06F
N BAR RANCH      N/A     57  48  72 CALM      30.19F
CHINOOK          N/A     64  57  77 E6        30.06S
$$

MTZ017>020-022>027-061-062-290900-
NORTHEAST MONTANA

CITY           SKY/WX    TMP DP  RH WIND       PRES   REMARKS
GLASGOW        CLEAR     59  53  80 E8        30.08F
JORDAN           N/A     61  56  83 E5        30.10F
SIDNEY         CLEAR     56  54  93 CALM      30.12F
WOLF POINT     CLEAR     58  54  86 CALM      30.10F
PLENTYWOOD       N/A     57  54  88 SE5       30.12S
POPLAR           N/A     61  55  82 CALM      30.11S
SCOBEY           N/A     55  40  57 CALM      30.09F
$$

MTZ028>42-056>058-290900-
SOUTHCENTRAL AND SOUTHEAST MONTANA

CITY           SKY/WX    TMP DP  RH WIND       PRES   REMARKS
BAKER          CLOUDY    59  58  96 SE5       30.15F
BILLINGS       CLEAR     65  50  58 N6        30.12F
LIVINGSTON     CLEAR     58  50  75 SW5       30.16F
MILES CITY     CLEAR     66  58  75 SE6       30.10F
EKALAKA          N/A     60  57  89 SE12      30.12F
FORSYTH          N/A     63  57  82 CALM      30.09S
LAUREL           N/A     64  50  60 N3        30.10F
ROUNDUP          N/A     61  48  62 CALM      30.03F
$$

REGIONAL REPORTS...DAKOTAS

CITY           SKY/WX    TMP DP  RH WIND       PRES   REMARKS
WILLISTON      CLEAR     53  51  93 CALM      30.12F
MINOT          MOCLDY    61  55  81 SW6       30.12S
DICKINSON      CLEAR     57  56  96 CALM      30.13F
BEACH            N/A     54  54 100 SE3       30.17F
CROSBY           N/A     54  54 100 SW8       30.14F
WATFORD CITY     N/A    N/A N/A N/A MISG        N/A
BISMARCK       CLOUDY    64  58  80 NE3       30.12S
GRAND FORKS    CLEAR     54  51  90 W5        30.09S
FARGO          PTCLDY    61  56  83 NE6       30.09F
BUFFALO SD       N/A     61  60  97 S7        30.10S
RAPID CITY     MOCLDY    56  55  97 SE3       30.16S FOG
$$

REGIONAL REPORTS...WYOMING/IDAHO/WASHINGTON

CITY           SKY/WX    TMP DP  RH WIND       PRES   REMARKS
GILLETTE       CLEAR     56  54  93 CALM      30.16F
SHERIDAN       CLEAR     56  50  80 SW3       30.14F
BUFFALO WY     CLEAR     60  51  72 S7        30.20F
CODY           CLEAR     63  48  59 S5        30.20F
YELLOWSTONE LA   N/A     46  38  73 CALM      30.37F
IDAHO FALLS    CLEAR     55  45  68 N7        30.07S
SALMON         CLEAR     63  43  48 NE5       30.08R
BOISE          CLEAR     75  36  24 SE7       29.95F
SPOKANE        CLEAR     71  50  47 CALM      29.99S
$$

REGIONAL REPORTS...ALBERTA

CITY           SKY/WX    TMP DP  RH WIND       PRES   REMARKS
EDMONTON       MOCLDY    55  54  94 SE5       30.04F
CALGARY        PTCLDY    61  50  67 W3        30.12F
LETHBRIDGE     MOCLDY    59  57  94 SW8       30.13R
MEDICINE HAT   CLOUDY    64  63  94 SE12      30.04F
WATERTON GATE    N/A     57  52  82 SW1         N/A
CARDSTON         N/A     57  55  94 SW8         N/A
MILK RIVER       N/A     61  59  94 NW7         N/A
ONEFOUR          N/A     61  55  82 NW9         N/A
$$

REGIONAL REPORTS...SASKATCHEWAN

CITY           SKY/WX    TMP DP  RH WIND       PRES   REMARKS
SWIFT CURRENT  CLEAR     57  54  88 S9        30.05F
REGINA         CLEAR     57  52  82 S7        30.09F
SASKATOON      CLOUDY    64  59  82 E5        30.03F
CYPRESS HILLS    N/A     59  50  72 S7          N/A
VAL MARIE        N/A     52  50  93 NE2         N/A
ROCKGLEN         N/A     54  50  87 S8          N/A
ASSINIBOIA       N/A     57  57 100 SW8         N/A
$$




USA.gov is the U.S. government's official web portal to all federal, state and local government web resources and services.